Weather History for Plattsburgh, NY

Change the Weather History Date:

Monday, May 20, 2013

  Actual Average Record
Temperature  
Mean Temperature 62 °F 58 °F  
Max Temperature 68 °F 69 °F 92 °F (1975)
Min Temperature 55 °F 46 °F 35 °F (1956)
Degree Days  
Heating Degree Days 4    
Cooling Degree Days 0 0  
Month to date cooling degree days 0 0  
Year to date cooling degree days 0 0  
Growing Degree Days 12 (Base 50)    
Moisture  
Dew Point 56 °F    
Average Humidity 87    
Maximum Humidity 100    
Minimum Humidity 73    
Precipitation  
Precipitation 0.06 in - 1.38 in (1957)
Month to date precipitation 0.61  
Year to date precipitation 4.57  
Sea Level Pressure  
Sea Level Pressure 29.99 in    
Wind  
Wind Speed 4 mph (SSE)    
Max Wind Speed 10 mph    
Max Gust Speed 21 mph    
Visibility 8 miles    
Events Fog , Rain    
T = Trace of Precipitation, MM = Missing Value Source: NWS Daily Summary

Daily Weather History Graph

Daily Weather History Graph

Search for Another Location

Airport:

Trip Planner

Search our weather history database for the weather conditions in past years. The results will help you decide how hot, cold, wet, or windy it might be!

Date:

Astronomy

May. 20, 2013 Rise Set
Actual Time 5:20 AM EDT 8:20 PM EDT
Civil Twilight 4:45 AM EDT 8:55 PM EDT
Nautical Twilight 4:01 AM EDT 9:40 PM EDT
Astronomical Twilight 3:09 AM EDT 10:33 PM EDT
Moon 3:14 PM EDT (5/20) 2:26 AM EDT (5/20)
Length of Visible Light 16h 09m
Length of Day
15h 00m
Waxing Gibbous, 75% of the Moon is Illuminated
May 20
Waxing Gibbous
May 25
Full
May 31
Last Quarter
Jun 8
New
Jun 16
First Quarter

Hourly Weather History & Observations

Time (EDT) Temp. Dew Point Humidity Pressure Visibility Wind Dir Wind Speed Gust Speed Precip Events Conditions
12:04 AM 55.4 °F 53.6 °F 94% 30.07 in 10.0 mi SSE 8.1 mph - N/A   Overcast
12:13 AM 55.4 °F 53.6 °F 94% 30.06 in 10.0 mi SSE 10.4 mph - N/A   Overcast
12:48 AM 55.4 °F 53.6 °F 94% 30.02 in 10.0 mi South 10.4 mph 20.7 mph N/A   Overcast
12:53 AM 55.9 °F 54.0 °F 93% 30.03 in 10.0 mi SSE 9.2 mph - N/A   Overcast
1:07 AM 55.4 °F 55.4 °F 100% 30.03 in 10.0 mi South 4.6 mph - N/A   Overcast
1:53 AM 55.9 °F 54.0 °F 93% 30.02 in 10.0 mi South 3.5 mph - N/A   Mostly Cloudy
2:53 AM 55.9 °F 54.0 °F 93% 30.00 in 10.0 mi South 6.9 mph - N/A   Overcast
3:53 AM 55.9 °F 54.0 °F 93% 29.98 in 10.0 mi SSE 5.8 mph - N/A   Overcast
4:53 AM 55.9 °F 54.0 °F 93% 29.98 in 10.0 mi SSE 3.5 mph - N/A   Overcast
5:53 AM 55.9 °F 54.0 °F 93% 29.98 in 10.0 mi South 6.9 mph - 0.01 in   Overcast
6:53 AM 57.0 °F 55.0 °F 93% 29.99 in 9.0 mi South 5.8 mph - 0.01 in Rain Light Rain
7:53 AM 55.9 °F 55.0 °F 97% 30.01 in 9.0 mi SE 4.6 mph - 0.03 in Rain Light Rain
8:13 AM 57.2 °F 55.4 °F 94% 30.01 in 10.0 mi SSW 4.6 mph - 0.00 in   Overcast
8:53 AM 57.9 °F 57.0 °F 97% 30.01 in 10.0 mi East 5.8 mph - 0.00 in   Overcast
10:53 AM 60.1 °F 55.9 °F 86% 30.00 in 10.0 mi ESE 5.8 mph - N/A   Mostly Cloudy
11:53 AM 57.0 °F 54.0 °F 89% 29.99 in 10.0 mi SE 5.8 mph - N/A   Overcast
12:53 PM 59.0 °F 55.0 °F 87% 30.00 in 10.0 mi ENE 3.5 mph - N/A   Overcast
1:02 PM 59.0 °F 55.4 °F 88% 30.00 in 10.0 mi Calm Calm - N/A   Overcast
1:31 PM 60.8 °F 55.4 °F 82% 30.00 in 10.0 mi Calm Calm - N/A   Overcast
1:53 PM 59.0 °F 55.9 °F 90% 29.99 in 10.0 mi ESE 3.5 mph - N/A   Overcast
2:53 PM 62.1 °F 57.9 °F 86% 29.99 in 10.0 mi SSE 6.9 mph - N/A   Overcast
3:01 PM 64.4 °F 57.2 °F 77% 29.98 in 10.0 mi South 4.6 mph - N/A   Overcast
3:53 PM 68.0 °F 60.1 °F 76% 29.99 in 10.0 mi South 5.8 mph - N/A   Scattered Clouds
4:53 PM 68.0 °F 59.0 °F 73% 29.98 in 10.0 mi SE 5.8 mph - N/A   Partly Cloudy
5:53 PM 66.9 °F 59.0 °F 76% 29.98 in 10.0 mi SE 5.8 mph - N/A   Clear
6:53 PM 66.9 °F 57.9 °F 73% 29.97 in 10.0 mi South 3.5 mph - N/A   Partly Cloudy
7:53 PM 63.0 °F 60.1 °F 90% 29.97 in 10.0 mi Calm Calm - N/A   Clear
8:53 PM 60.1 °F 59.0 °F 96% 29.97 in 5.0 mi Calm Calm - N/A   Mostly Cloudy
9:57 PM 57.2 °F 57.2 °F 100% 29.96 in 0.5 mi Calm Calm - N/A Fog Fog
10:09 PM 57.2 °F 55.4 °F 94% 29.96 in 0.5 mi WSW 3.5 mph - N/A Fog Fog
10:12 PM 59.0 °F 57.2 °F 94% 29.96 in 1.0 mi WSW 3.5 mph - N/A   Mist
10:15 PM 59.0 °F 57.2 °F 94% 29.96 in 3.0 mi WSW 3.5 mph - N/A   Partly Cloudy
10:53 PM 57.9 °F 57.0 °F 97% 29.97 in 5.0 mi Calm Calm - N/A   Mostly Cloudy
11:53 PM 57.0 °F 55.9 °F 96% 29.97 in 2.0 mi Calm Calm - N/A   Mostly Cloudy
11:58 PM 55.4 °F 55.4 °F 100% 29.96 in 1.0 mi Calm Calm - N/A   Scattered Clouds